• In Deutschland
  • Länderverzeichnis
  • Für 7 Tage
  • Wassertemperatur
  • Satellitenkarten
  • Wetterkarte
  • Widgets
  • user-avatar
    Anmelden

    Stündliche Wetter Shaki

    Heute, 21 August, Montag

    Zeit Temperatur Niederschläge Wind Luftdruck Luftfeuchtigkeit
    00:00 +27°C° 0 mm 2 m/S 735 mmHg 34%
    01:00 +26°C° 0 mm 2 m/S 735 mmHg 34%
    02:00 +26°C° 0 mm 2 m/S 735 mmHg 35%
    03:00 +26°C° 0 mm 2 m/S 734 mmHg 34%
    04:00 +26°C° 0 mm 2 m/S 734 mmHg 35%
    05:00 +26°C° 0 mm 2 m/S 734 mmHg 35%
    06:00 +26°C° 0 mm 1 m/S 735 mmHg 36%
    07:00 +28°C° 0 mm 2 m/S 734 mmHg 33%
    08:00 +30°C° 0 mm 2 m/S 734 mmHg 29%
    09:00 +34°C° 0 mm 2 m/S 734 mmHg 25%
    10:00 +35°C° 0 mm 3 m/S 734 mmHg 24%
    11:00 +36°C° 0 mm 3 m/S 734 mmHg 23%
    12:00 +37°C° 0 mm 3 m/S 733 mmHg 22%
    13:00 +37°C° 0 mm 3 m/S 733 mmHg 22%
    14:00 +37°C° 0 mm 3 m/S 732 mmHg 22%
    15:00 +38°C° 0 mm 3 m/S 732 mmHg 22%
    16:00 +37°C° 0 mm 3 m/S 732 mmHg 24%
    17:00 +36°C° 0 mm 3 m/S 732 mmHg 26%
    18:00 +34°C° 0 mm 3 m/S 732 mmHg 28%
    19:00 +33°C° 0 mm 3 m/S 732 mmHg 30%
    20:00 +30°C° 0 mm 3 m/S 732 mmHg 31%
    21:00 +29°C° 0 mm 3 m/S 733 mmHg 32%
    22:00 +28°C° 0 mm 3 m/S 733 mmHg 34%
    23:00 +28°C° 0 mm 2 m/S 733 mmHg 36%

    Morgen, 22 August, Dienstag

    Zeit Temperatur Niederschläge Wind Luftdruck Luftfeuchtigkeit
    00:00 +27°C° 0 mm 2 m/S 733 mmHg 38%
    01:00 +27°C° 0 mm 2 m/S 732 mmHg 40%
    02:00 +26°C° 0 mm 2 m/S 732 mmHg 41%
    03:00 +26°C° 0 mm 2 m/S 732 mmHg 42%
    04:00 +26°C° 0 mm 2 m/S 732 mmHg 41%
    05:00 +26°C° 0 mm 2 m/S 732 mmHg 40%
    06:00 +26°C° 0 mm 2 m/S 732 mmHg 38%
    07:00 +29°C° 0 mm 2 m/S 732 mmHg 33%
    08:00 +31°C° 0 mm 1 m/S 732 mmHg 28%
    09:00 +33°C° 0 mm 1 m/S 732 mmHg 23%
    10:00 +35°C° 0 mm 2 m/S 732 mmHg 22%
    11:00 +36°C° 0 mm 2 m/S 732 mmHg 21%
    12:00 +37°C° 0 mm 3 m/S 731 mmHg 19%
    13:00 +38°C° 0 mm 3 m/S 731 mmHg 19%
    14:00 +38°C° 0 mm 3 m/S 731 mmHg 18%
    15:00 +39°C° 0 mm 3 m/S 730 mmHg 18%
    16:00 +37°C° 0 mm 3 m/S 730 mmHg 20%
    17:00 +36°C° 0 mm 3 m/S 730 mmHg 23%
    18:00 +35°C° 0 mm 3 m/S 730 mmHg 25%
    19:00 +34°C° 0 mm 3 m/S 731 mmHg 26%
    20:00 +31°C° 0 mm 3 m/S 731 mmHg 28%
    21:00 +29°C° 0 mm 4 m/S 732 mmHg 29%
    22:00 +28°C° 0 mm 3 m/S 732 mmHg 31%
    23:00 +28°C° 0 mm 3 m/S 732 mmHg 32%

    übermorgen, 23 August, Mittwoch

    Zeit Temperatur Niederschläge Wind Luftdruck Luftfeuchtigkeit
    00:00 +27°C° 0 mm 2 m/S 732 mmHg 33%
    01:00 +27°C° 0 mm 2 m/S 731 mmHg 33%
    02:00 +26°C° 0 mm 2 m/S 731 mmHg 33%
    03:00 +26°C° 0 mm 2 m/S 731 mmHg 33%
    04:00 +26°C° 0 mm 2 m/S 732 mmHg 32%
    05:00 +26°C° 0 mm 1 m/S 732 mmHg 31%
    06:00 +26°C° 0 mm 1 m/S 732 mmHg 31%
    07:00 +29°C° 0 mm 2 m/S 732 mmHg 26%
    08:00 +31°C° 0 mm 2 m/S 732 mmHg 22%
    09:00 +34°C° 0 mm 2 m/S 732 mmHg 18%
    10:00 +35°C° 0 mm 3 m/S 732 mmHg 17%
    11:00 +37°C° 0 mm 4 m/S 732 mmHg 16%
    12:00 +39°C° 0 mm 5 m/S 732 mmHg 14%
    13:00 +39°C° 0 mm 5 m/S 732 mmHg 15%
    14:00 +39°C° 0 mm 5 m/S 731 mmHg 16%
    15:00 +40°C° 0 mm 6 m/S 731 mmHg 17%
    16:00 +37°C° 0 mm 5 m/S 731 mmHg 19%
    17:00 +36°C° 0 mm 5 m/S 731 mmHg 21%
    18:00 +34°C° 0 mm 5 m/S 731 mmHg 23%
    19:00 +32°C° 0 mm 4 m/S 732 mmHg 24%
    20:00 +30°C° 0 mm 3 m/S 733 mmHg 26%
    21:00 +28°C° 0 mm 3 m/S 733 mmHg 27%
    22:00 +28°C° 0 mm 2 m/S 733 mmHg 27%
    23:00 +27°C° 0 mm 2 m/S 734 mmHg 27%

    24 August, Donnerstag

    Zeit Temperatur Niederschläge Wind Luftdruck Luftfeuchtigkeit
    00:00 +27°C° 0 mm 1 m/S 734 mmHg 28%
    01:00 +26°C° 0 mm 1 m/S 734 mmHg 28%
    02:00 +26°C° 0 mm 2 m/S 734 mmHg 28%
    03:00 +26°C° 0 mm 2 m/S 735 mmHg 29%
    04:00 +26°C° 0 mm 2 m/S 735 mmHg 30%
    05:00 +26°C° 0 mm 2 m/S 735 mmHg 31%
    06:00 +26°C° 0 mm 2 m/S 736 mmHg 32%
    07:00 +28°C° 0 mm 2 m/S 736 mmHg 29%
    08:00 +30°C° 0 mm 2 m/S 736 mmHg 26%
    09:00 +32°C° 0 mm 2 m/S 736 mmHg 22%
    10:00 +35°C° 0 mm 3 m/S 736 mmHg 20%
    11:00 +36°C° 0 mm 3 m/S 736 mmHg 18%
    12:00 +37°C° 0 mm 4 m/S 736 mmHg 16%
    13:00 +38°C° 0 mm 4 m/S 735 mmHg 16%
    14:00 +39°C° 0 mm 5 m/S 735 mmHg 15%
    15:00 +39°C° 0 mm 5 m/S 735 mmHg 15%
    16:00 +37°C° 0 mm 5 m/S 735 mmHg 17%
    17:00 +35°C° 0 mm 5 m/S 735 mmHg 19%
    18:00 +34°C° 0 mm 4 m/S 735 mmHg 22%
    19:00 +32°C° 0 mm 4 m/S 736 mmHg 22%
    20:00 +30°C° 0 mm 4 m/S 736 mmHg 23%
    21:00 +28°C° 0 mm 4 m/S 737 mmHg 23%
    22:00 +27°C° 0 mm 3 m/S 737 mmHg 24%
    23:00 +27°C° 0 mm 3 m/S 737 mmHg 25%

    25 August, Freitag

    Zeit Temperatur Niederschläge Wind Luftdruck Luftfeuchtigkeit
    00:00 +26°C° 0 mm 2 m/S 737 mmHg 25%
    01:00 +25°C° 0 mm 2 m/S 737 mmHg 25%
    02:00 +25°C° 0 mm 2 m/S 737 mmHg 26%
    03:00 +25°C° 0 mm 1 m/S 737 mmHg 26%
    04:00 +25°C° 0 mm 1 m/S 737 mmHg 27%
    05:00 +25°C° 0 mm 1 m/S 737 mmHg 29%
    06:00 +25°C° 0 mm 1 m/S 737 mmHg 30%
    07:00 +27°C° 0 mm 1 m/S 737 mmHg 27%
    08:00 +29°C° 0 mm 1 m/S 738 mmHg 24%
    09:00 +32°C° 0 mm 1 m/S 738 mmHg 21%
    10:00 +34°C° 0 mm 2 m/S 737 mmHg 19%
    11:00 +35°C° 0 mm 2 m/S 737 mmHg 17%
    12:00 +36°C° 0 mm 3 m/S 737 mmHg 15%
    13:00 +37°C° 0 mm 3 m/S 736 mmHg 14%
    14:00 +37°C° 0 mm 3 m/S 736 mmHg 14%
    15:00 +38°C° 0 mm 4 m/S 736 mmHg 13%
    16:00 +36°C° 0 mm 4 m/S 736 mmHg 14%
    17:00 +35°C° 0 mm 3 m/S 736 mmHg 16%
    18:00 +34°C° 0 mm 3 m/S 736 mmHg 17%
    19:00 +31°C° 0 mm 3 m/S 736 mmHg 17%
    20:00 +29°C° 0 mm 3 m/S 737 mmHg 17%
    21:00 +28°C° 0 mm 3 m/S 737 mmHg 18%
    22:00 +27°C° 0 mm 3 m/S 737 mmHg 19%
    23:00 +26°C° 0 mm 3 m/S 737 mmHg 20%

    26 August, Samstag

    Zeit Temperatur Niederschläge Wind Luftdruck Luftfeuchtigkeit
    00:00 +26°C° 0 mm 2 m/S 737 mmHg 21%
    01:00 +25°C° 0 mm 2 m/S 737 mmHg 22%
    02:00 +25°C° 0 mm 2 m/S 737 mmHg 22%
    03:00 +24°C° 0 mm 2 m/S 737 mmHg 23%
    04:00 +25°C° 0 mm 2 m/S 737 mmHg 25%
    05:00 +25°C° 0 mm 1 m/S 737 mmHg 26%
    06:00 +25°C° 0 mm 1 m/S 738 mmHg 28%
    07:00 +27°C° 0 mm 1 m/S 738 mmHg 26%
    08:00 +29°C° 0 mm 1 m/S 738 mmHg 24%
    09:00 +31°C° 0 mm 1 m/S 738 mmHg 22%
    10:00 +32°C° 0 mm 2 m/S 737 mmHg 21%
    11:00 +34°C° 0 mm 2 m/S 737 mmHg 20%
    12:00 +36°C° 0 mm 3 m/S 736 mmHg 18%
    13:00 +36°C° 0 mm 3 m/S 736 mmHg 18%
    14:00 +36°C° 0 mm 3 m/S 736 mmHg 18%
    15:00 +37°C° 0 mm 3 m/S 735 mmHg 17%
    16:00 +36°C° 0 mm 3 m/S 735 mmHg 19%
    17:00 +34°C° 0 mm 3 m/S 736 mmHg 21%
    18:00 +32°C° 0 mm 2 m/S 736 mmHg 23%
    19:00 +31°C° 0 mm 3 m/S 736 mmHg 26%
    20:00 +29°C° 0 mm 3 m/S 736 mmHg 28%
    21:00 +27°C° 0 mm 3 m/S 737 mmHg 31%
    22:00 +27°C° 0 mm 3 m/S 737 mmHg 33%
    23:00 +26°C° 0 mm 3 m/S 737 mmHg 35%
    Mehr zeigen